www.pogodaiklimat.ru

Погода и климат >> Архив погоды >> Россия >> Томская область >> Новый Васюган


ПОГОДА в Новом Васюгане

  • Прогноз погоды в Новом Васюгане
  • Монитор погоды в Новом Васюгане

АРХИВ ПОГОДЫ в Новом Васюгане

Время (UTC), дата Ветер
(напр.,м/с)
 
Видим.   Явления Облачность Т
(С)
Тd
(С)
f
(%)
Тe
(С)
Тes
(С)
Комфортность P
(гПа)
Po
(гПа)
Тmin
(С)
Tmax
(С)
R
(мм)
R24
(мм)
S
(см)
18 14.09 Ю 1 4000 м слаб. ливневой дождь 10/4 300 м
[Cb cap Ac und]
+11.2 +10.2 94 +11 +11 1010.7 1001.1
21 14.09 Ю 1 2000 м в посл. час туман {ливн. осадки} 10/5 300 м
[Cb cap Ac trans Ci fib]
+10.5 +9.4 93 +10 +10 1010.2 1000.5
00 15.09 Ю 1 500 м туман {ливн. осадки} 10/8 210 м
[St Ac trans Ci fib]
+9.2 +8.2 93 +8 +8 1010.8 1001.1 +9.2 1
03 15.09 Ю 1 500 м туман 9/5 600 м
[Sc Ac trans Ci fib]
+10.0 +9.1 94 +9 +10 1011.5 1001.8 +8.9
06 15.09 ЮЗ 2 2000 м дымка {туман} 10/10 120 м
[St]
+11.9 +10.9 94 +11 +11 1012.3 1002.7
09 15.09 ЮВ 1 50 км 9/8 330 м
[Sc Ac trans Ci sp]
+15.8 +12.2 79 +16 +17 1012.7 1003.2
12 15.09 Ю 1 50 км 6/3 600 м
[Sc Ac trans Ci fib]
+17.7 +13.0 74 +19 +19 1012.1 1002.6 +18.3
15 15.09 Ю 1 50 км 4/0
[Ac trans Ci sp]
+13.9 +12.3 90 +14 +14 1012.2 1002.7
18 15.09 Ю 2 50 км 8/0
[Ci fib]
+13.5 +11.0 85 +13 +13 1011.9 1002.3
21 15.09 Ю 2 50 км 3/0
[Ci fib]
+11.9 +9.9 88 +11 +11 1011.5 1001.9
00 16.09 Ю 2 50 км 6/0
[Ac trans Ci fib]
+11.0 +9.1 88 +10 +10 1011.5 1001.8 +11.0
03 16.09 Ю 2 50 км 8/0
[Ac trans Ci fib]
+14.6 +9.3 70 +14 +15 1010.9 1001.4 +10.7
06 16.09 Ю 2 50 км 3/0
[Ac trans Ci fib]
+21.0 +9.0 46 +23 +29 комфорт 1009.6 1000.3
09 16.09 Ю 3
{10}
50 км 4/0
[Ac trans Cc]
+22.7 +5.6 33 +23 +26 комфорт 1008.6 999.3
12 16.09 Ю 2 50 км 4/1 600 м
[Sc Ac cast Cc]
+22.0 +5.4 34 +22 +23 комфорт 1007.7 998.4 +24.1
15 16.09 Ю 2 50 км 3/1 600 м
[Sc Ci fib]
+16.6 +6.4 51 +17 +17 1007.2 997.8
18 16.09 Ю 3 50 км 3/0
[Ac trans Ci fib]
+15.7 +5.1 49 +15 +15 1006.4 996.9
21 16.09 Ю 2 50 км 10/0
[Ac trans Ci fib]
+14.5 +5.6 55 +14 +14 1005.1 995.6
00 17.09 ЮВ 2 50 км 10/4 600 м
[Cb cap Ac trans Ci sp]
+13.5 +6.3 62 +13 +13 1003.5 994.0 +13.5
03 17.09 Ю 2 50 км 9/3 600 м
[Cb cap Ac cuf Ci fib]
+16.2 +6.8 54 +16 +17 1001.8 992.4 +13.2
06 17.09 ЮВ 3
{10}
10 км слаб. ливневой дождь {гроза} 10/4 300 м
[Cb cap Ac As Ci fib]
+14.5 +8.9 69 +14 +15 1000.5 991.1
09 17.09 Ю 2
{12}
20 км в посл. час ливневой дождь 10/6 870 м
[Cb cap Ac cuf Ci fib]
+12.4 +11.0 91 +11 +12 1002.1 992.6
12 17.09 ЮЗ 4 50 км {ливн. осадки} 6/1 300 м
[Sc Ac cuf Ci fib]
+13.5 +4.4 54 +12 +12 1003.7 994.2 +17.0 5
15 17.09 Ю 3 50 км {ливн. осадки} 8/3 600 м
[Cb cap Ac cuf Ci fib]
+12.0 +4.9 62 +11 +11 1004.5 995.0
18 17.09 Ю 2 10 км слаб. ливневой дождь 8/4 600 м
[Cb cap Ac trans Ci fib]
+10.3 +6.9 79 +9 +9 1004.9 995.3
21 17.09 Ю 2 50 км {ливн. осадки} 4/1 600 м
[Sc Ac trans]
+8.8 +6.6 86 +7 +7 1005.9 996.2
00 18.09 Ю 3 50 км {ливн. осадки} 4/0
[Ac trans Ci sp]
+8.2 +5.9 85 +6 +6 1006.9 997.2 +8.2 0.3
03 18.09 Ю 3 50 км 3/0
[Ac cast Ci sp]
+9.5 +6.1 79 +7 +8 1007.6 997.9
06 18.09 ЮЗ 4 50 км 4/3 300 м
[Cu hum Ci fib]
+15.4 +6.1 54 +15 +17 1007.9 998.5
09 18.09 Ю 4 50 км 9/1 600 м
[Cu hum Ac As Ci sp]
+17.0 +4.0 42 +17 +18 1008.0 998.5
12 18.09 ЮВ 3 50 км 10/1 600 м
[Cb cap Ac und]
+14.6 +6.5 58 +14 +14 1006.9 997.5 +17.3
15 18.09 Ю 2 50 км в посл. час ливневой дождь 10/4 600 м
[Cb cap Ac und]
+14.4 +7.6 64 +14 +14 1006.2 996.7
18 18.09 Ю 2 50 км {ливн. осадки} 10/3 600 м
[Cb cap Ac und]
+13.5 +8.4 71 +13 +13 1004.8 995.3
21 18.09 В 1 50 км в посл. час ливневой дождь 10/4 600 м
[Cb cap Ac und]
+11.9 +10.2 89 +12 +12 1002.0 992.5
00 19.09 ЮВ 2 10 км слаб. ливневой дождь 10/5 600 м
[Cb cap Ac und]
+11.1 +9.7 91 +10 +10 999.7 990.2 +11.1 4
03 19.09 ЮЗ 5 50 км в посл. час ливневой дождь 10/8 300 м
[Cb cap Ac und]
+12.5 +10.9 90 +10 +10 1000.0 990.5 +11.1
06 19.09 ЮЗ 4 50 км {ливн. осадки} 10/6 500 м
[Cb cap Ac und]
+13.3 +10.6 84 +12 +12 1003.1 993.6
09 19.09 ЮЗ 4
{11}
50 км 8/4 600 м
[Cb calv Cc]
+17.2 +9.1 59 +17 +18 1003.5 994.1
12 19.09 ЮВ 2 50 км 10/3 600 м
[Cb calv Ac As Ci sp]
+16.1 +10.0 67 +16 +16 1001.8 992.5 +17.2 2
15 19.09 В 3 50 км 10/3 300 м
[Cb cap Ac und]
+14.1 +10.7 80 +13 +13 997.3 987.9
18 19.09 Ю 4-11
{11}
50 км 10/0
[Ac As Ci sp]
+18.8 +6.8 46 +19 +19 990.5 981.3
21 19.09 Ю 5-10
{16}
10 км слаб. ливневой дождь 10/6 360 м
[Cb cap Ac und]
+12.1 +7.7 74 +10 +10 990.0 980.6
00 20.09 Ю 5
{11}
50 км {ливн. осадки} 1/0
[Ci sp]
+11.1 +4.2 62 +9 +9 988.0 978.6 +11.0 1
03 20.09 Ю 6-12
{15}
50 км 9/5 600 м
[Cb cap Ac As Ci sp]
+11.3 +3.3 58 +9 +9 986.8 977.4
06 20.09 ЮЗ 8-18
{19}
50 км {ливн. осадки} 10/4 600 м
[Cb cap Ac und]
+9.8 +4.4 69 +6 +6 990.9 981.4
09 20.09 ЮЗ 6-12
{18}
50 км в посл. час ливневой дождь 9/5 600 м
[Cb cap Ac cuf Ci sp]
+10.4 +5.5 72 +7 +8 998.4 988.8
12 20.09 ЮЗ 6
{17}
50 км в посл. час ливневой дождь 10/5 600 м
[Cb cap Ac cuf Ci fib]
+9.4 +5.5 77 +6 +6 1003.1 993.4 +11.9 3
15 20.09 ЮЗ 2
{11}
50 км 6/1 600 м
[Sc Ac trans]
+8.5 +3.6 71 +7 +7 1006.1 996.4
18 20.09 ЮЗ 3 50 км 8/0
[Ac trans Ci sp]
+7.7 +2.8 71 +5 +5 1007.8 998.1
21 20.09 ЮЗ 3 50 км ясно +4.4 +0.3 75 +1 +1 1009.7 999.9
00 21.09 ЮЗ 2 50 км 1/0
[Ac trans]
+2.2 -0.4 83 -1 -1 1012.2 1002.2 +2.2
03 21.09 ЮЗ 4 50 км 3/0
[Ac trans]
+4.8 -0.2 70 +1 +2 1014.3 1004.4 +2.0
06 21.09 ЮЗ 6
{10}
50 км 5/3 300 м
[Cu med, cong Ac trans]
+8.8 -0.5 52 +5 +7 1016.1 1006.3
09 21.09 З 5
{11}
50 км 8/5 300 м
[Sc Ac trans]
+9.7 -3.2 40 +7 +8 1017.7 1007.9
12 21.09 ЮЗ 3 50 км 3/3 600 м
[Sc Ci sp]
+10.0 -3.5 38 +8 +9 1017.9 1008.1 +10.8

 

Местоположение метеостанции Новый Васюган (Томская область, Россия): широта 58.58 долгота 76.52 высота над уровнем моря 80 м.

В архиве по умолчанию представлена погода в Новом Васюгане за последнюю неделю. Архивные данные за месяц целиком и за предыдущие месяцы, начиная с января 2011 года, Вы можете получить, выбрав интересующий диапазон дат из раскрывающегося списка и нажав кнопку "Ввод!".


*Определитесь, кто Вы:
робот инопланетянин человек

Внимание! Время в таблицах - всемирное. Для получения местного времени необходимо прибавить поправку, которая равна 7 ч.

Смотрите также архив погоды в соседних городах и на ближайших метеорологических станциях:

Погода в Майске (Томская область, Россия) (94 км)
Погода в Среднем Васюгане (Томская область, Россия) (121 км)
Погода в Вассисе (Омская область, Россия) (172 км)
Погода в Седельниково (Омская область, Россия) (195 км)
Погода в Прохоркино (Томская область, Россия) (198 км)
Погода в Пудино (Томская область, Россия) (205 км)
Погода в Таурово (Ханты-Мансийский АО, Россия) (216 км)
Погода в Александровском (Томская область, Россия) (219 км)
Погода в Кыштовке (Новосибирская область, Россия) (220 км)
Погода в Таре (Омская область, Россия) (226 км)

Пояснения к столбцам:

Ветер - указаны скорость ветра в м/с - средняя за 10 мин, порывы в срок и между сроками (в фигурных скобках) и направление, откуда дует ветер: С - северный, СВ - северо-восточный, В - восточный, ЮВ - юго-восточный, Ю - южный, ЮЗ - юго-западный, З - западный, СЗ - северо-западный.
Видимость - горизонтальная дальность видимости в метрах или километрах. При видимости от 1 до 10 км при отсутствии осадков обычно наблюдается дымка, при ухудшении видимости до 1 км и менее - туман. В сухую погоду видимость может ухудшаться дымом, пылью или мглою.
Явления - указаны атмосферные явления, наблюдавшиеся в срок или в последний час перед сроком; фигурными скобками обозначены явления, наблюдавшиеся между сроками (за 1-3 часа до срока); квадратными скобками обозначены град или гололедные отложения с указанием их диаметра в мм.
Облачность - указаны через наклонную черту общая и нижняя облачность в баллах и высота нижней границы облаков в метрах; квадратными скобками обозначены формы облаков: Ci - перистые, Cs - перисто-слоистые, Cc - перисто-кучевые, Ac - высококучевые, As - высокослоистые, Sc - слоисто-кучевые, Ns - слоисто-дождевые, Cu - кучевые, Cb - кучево-дождевые. Подробнее классификацию облаков см. в Атласе облаков (PDF).
T - Температура воздуха - температура, измеренная на высоте 2 м над землей.
Td - Температура точки росы - температура, при понижении до которой содержащийся в воздухе водяной пар достигнет насыщения.
f - Относительная влажность воздуха - влажноcть воздуха, измеренная на высоте 2 м над землей.
Te - Эффективная температура - температура, которую ощущает одетый по сезону человек в тени. Характеристика душности погоды. При расчете учитывается влияние влажности воздуха и скорости ветра на теплоощущения человека.
Tes - Эффективная температура на солнце - температура, которую ощущает человек, с поправкой на солнечный нагрев. Характеристика знойности погоды. Зависит от высоты солнца над горизонтом, облачности и скорости ветра. Ночью, в пасмурную погоду, а также при ветре 12 м/с и более поправка равна нулю.
P - Атмосферное давление - приведенное к уровню моря атмосферное давление.
Po - Атмосферное давление - измеренное на уровне метеостанции атмосферное давление.
Tmin - Минимальная температура - минимум температуры воздуха на высоте 2 м над землей.
Tmax - Максимальная температура - максимум температуры воздуха на высоте 2 м над землей.
R - Количество осадков - Количество выпавших осадков за период времени, мм. При наведении курсора мыши на число - период времени, за который выпало указанное количество осадков.
R24 - Количество осадков - Количество выпавших осадков за 24 часа, мм.
S - Снежный покров - Высота снежного покрова, см. При наведении курсора мыши на число - состояние снежного покрова и степень покрытия местности в баллах.